Вернуться в каталог

STARLINK-35273

АктивенСвязьSSO
NORAD 65805·PAYLOAD·🇺🇸 United States

Запущен Sep 26, 2025 с Vandenberg Space Force Base

Loading…

Ближайшие Пролёты (ближайшие 24 часа)

TLE

СвежийSource: CelesTrak SupGP

Эпоха: Sep 14, 2026, 22:48 UTC

1 65805C 25218Q   26257.95048611  .00050437  00000+0  15656-2 0  2578
2 65805  97.2840 115.4087 0001880  94.4952 264.4365 15.33414838    13

Отслеживайте STARLINK-35273 в реальном времени с AllMySat

Download on the App Store